Time,TemperatureF,DewpointF,PressureIn,WindDirection,WindDirectionDegrees,WindSpeedMPH,WindSpeedGustMPH,Humidity,HourlyPrecipIn,Conditions,Clouds,dailyrainin,SoftwareType,DateUTC
2013-05-24 00:05:00,68.9,60.3,29.89,WSW,247,0.0,0.0,74,0.00,,,0.10,Wunderground v.1.15,2013-05-24 04:05:00,
2013-05-24 00:10:00,68.4,59.8,29.89,WSW,247,0.0,0.0,74,0.00,,,0.00,Wunderground v.1.15,2013-05-24 04:10:00,
2013-05-24 00:15:00,68.1,59.5,29.89,WSW,247,0.0,0.0,74,0.00,,,0.00,Wunderground v.1.15,2013-05-24 04:15:00,
2013-05-24 00:21:00,68.0,59.4,29.89,WSW,247,0.0,0.0,74,0.00,,,0.00,Wunderground v.1.15,2013-05-24 04:21:00,
2013-05-24 00:26:00,67.9,59.3,29.89,WSW,247,0.0,0.0,74,0.00,,,0.00,Wunderground v.1.15,2013-05-24 04:26:00,
2013-05-24 00:31:00,67.9,58.9,29.89,WSW,247,0.0,0.0,73,0.00,,,0.00,Wunderground v.1.15,2013-05-24 04:31:00,
2013-05-24 00:36:00,67.8,59.2,29.89,WSW,247,0.0,0.0,74,0.00,,,0.00,Wunderground v.1.15,2013-05-24 04:36:00,
2013-05-24 00:41:00,67.7,59.1,29.89,WSW,247,0.0,0.0,74,0.00,,,0.00,Wunderground v.1.15,2013-05-24 04:41:00,
2013-05-24 00:46:00,67.6,58.6,29.89,WSW,247,0.0,0.0,73,0.00,,,0.00,Wunderground v.1.15,2013-05-24 04:46:00,
2013-05-24 00:51:00,67.5,58.5,29.90,WSW,247,0.0,0.0,73,0.00,,,0.00,Wunderground v.1.15,2013-05-24 04:51:00,
2013-05-24 00:56:00,67.6,58.2,29.89,WSW,247,0.0,0.0,72,0.00,,,0.00,Wunderground v.1.15,2013-05-24 04:56:00,
2013-05-24 01:01:00,67.6,58.6,29.90,WSW,247,0.0,0.0,73,0.00,,,0.00,Wunderground v.1.15,2013-05-24 05:01:00,
2013-05-24 01:06:00,67.4,58.1,29.90,WSW,247,0.0,0.0,72,0.00,,,0.00,Wunderground v.1.15,2013-05-24 05:06:00,
2013-05-24 01:11:00,67.3,58.3,29.90,WSW,247,0.0,0.0,73,0.00,,,0.00,Wunderground v.1.15,2013-05-24 05:11:00,
2013-05-24 01:16:00,67.2,58.6,29.89,WSW,247,0.0,0.0,74,0.00,,,0.00,Wunderground v.1.15,2013-05-24 05:16:00,
2013-05-24 01:21:00,66.8,58.6,29.89,WSW,247,0.0,0.0,75,0.00,,,0.00,Wunderground v.1.15,2013-05-24 05:21:00,
2013-05-24 01:27:00,66.3,58.9,29.89,WSW,247,0.0,0.0,77,0.00,,,0.00,Wunderground v.1.15,2013-05-24 05:27:00,
2013-05-24 01:32:00,66.1,57.9,29.89,WSW,247,0.0,3.0,75,0.00,,,0.00,Wunderground v.1.15,2013-05-24 05:32:00,
2013-05-24 01:37:00,66.0,57.8,29.89,WSW,247,4.0,4.0,75,0.00,,,0.00,Wunderground v.1.15,2013-05-24 05:37:00,
2013-05-24 01:42:00,65.9,57.4,29.89,WSW,247,0.0,4.0,74,0.00,,,0.00,Wunderground v.1.15,2013-05-24 05:42:00,
2013-05-24 01:47:00,66.1,57.6,29.90,WSW,247,0.0,1.0,74,0.00,,,0.00,Wunderground v.1.15,2013-05-24 05:47:00,
2013-05-24 01:53:00,66.3,57.4,29.90,WSW,247,0.0,0.0,73,0.00,,,0.00,Wunderground v.1.15,2013-05-24 05:53:00,
2013-05-24 01:58:00,66.4,56.7,29.90,WSW,247,2.0,2.0,71,0.00,,,0.00,Wunderground v.1.15,2013-05-24 05:58:00,
2013-05-24 02:03:00,66.6,56.9,29.90,West,260,2.0,2.0,71,0.00,,,0.00,Wunderground v.1.15,2013-05-24 06:03:00,
2013-05-24 02:08:00,66.6,56.5,29.90,SW,229,0.0,4.0,70,0.00,,,0.00,Wunderground v.1.15,2013-05-24 06:08:00,
2013-05-24 02:13:00,66.6,56.9,29.90,SW,229,0.0,1.0,71,0.00,,,0.00,Wunderground v.1.15,2013-05-24 06:13:00,
2013-05-24 02:18:00,66.5,56.4,29.90,SW,229,0.0,1.0,70,0.00,,,0.00,Wunderground v.1.15,2013-05-24 06:18:00,
2013-05-24 02:23:00,66.5,56.4,29.90,SW,229,0.0,0.0,70,0.00,,,0.00,Wunderground v.1.15,2013-05-24 06:23:00,
2013-05-24 02:28:00,66.5,56.4,29.90,SW,229,0.0,0.0,70,0.00,,,0.00,Wunderground v.1.15,2013-05-24 06:28:00,
2013-05-24 02:33:00,66.5,56.4,29.90,SW,232,0.0,0.0,70,0.00,,,0.00,Wunderground v.1.15,2013-05-24 06:33:00,
2013-05-24 02:38:00,66.5,56.8,29.90,WNW,283,1.0,4.0,71,0.00,,,0.00,Wunderground v.1.15,2013-05-24 06:38:00,
2013-05-24 02:43:00,66.4,56.3,29.90,WNW,287,1.0,2.0,70,0.00,,,0.00,Wunderground v.1.15,2013-05-24 06:43:00,
2013-05-24 02:48:00,66.3,56.2,29.90,WNW,284,0.0,4.0,70,0.00,,,0.00,Wunderground v.1.15,2013-05-24 06:48:00,
2013-05-24 02:53:00,66.2,56.5,29.90,WNW,284,0.0,1.0,71,0.00,,,0.00,Wunderground v.1.15,2013-05-24 06:53:00,
2013-05-24 02:58:00,66.1,56.8,29.89,WNW,284,0.0,2.0,72,0.00,,,0.00,Wunderground v.1.15,2013-05-24 06:58:00,
2013-05-24 03:03:00,65.9,56.2,29.89,WNW,284,1.0,1.0,71,0.00,,,0.00,Wunderground v.1.15,2013-05-24 07:03:00,
2013-05-24 03:08:00,65.8,56.5,29.89,WNW,284,0.0,1.0,72,0.00,,,0.00,Wunderground v.1.15,2013-05-24 07:08:00,
2013-05-24 03:13:00,65.5,56.2,29.89,WNW,285,0.0,0.0,72,0.00,,,0.00,Wunderground v.1.15,2013-05-24 07:13:00,
2013-05-24 03:18:00,65.3,56.0,29.89,WNW,285,0.0,4.0,72,0.00,,,0.00,Wunderground v.1.15,2013-05-24 07:18:00,
2013-05-24 03:24:00,65.3,56.4,29.89,WNW,284,0.0,1.0,73,0.00,,,0.00,Wunderground v.1.15,2013-05-24 07:24:00,
2013-05-24 03:29:00,65.2,56.3,29.89,WNW,284,0.0,1.0,73,0.00,,,0.00,Wunderground v.1.15,2013-05-24 07:29:00,
2013-05-24 03:34:00,65.0,56.1,29.89,WNW,285,0.0,0.0,73,0.00,,,0.00,Wunderground v.1.15,2013-05-24 07:34:00,
2013-05-24 03:39:00,64.8,56.3,29.89,WNW,285,0.0,0.0,74,0.00,,,0.00,Wunderground v.1.15,2013-05-24 07:39:00,
2013-05-24 03:44:00,64.4,56.3,29.89,WNW,285,0.0,0.0,75,0.00,,,0.00,Wunderground v.1.15,2013-05-24 07:44:00,
2013-05-24 03:49:00,63.9,56.2,29.89,WNW,285,0.0,0.0,76,0.00,,,0.00,Wunderground v.1.15,2013-05-24 07:49:00,
2013-05-24 03:54:00,63.5,55.8,29.89,WNW,284,0.0,1.0,76,0.00,,,0.00,Wunderground v.1.15,2013-05-24 07:54:00,
2013-05-24 03:59:00,63.4,56.1,29.89,WNW,285,0.0,1.0,77,0.00,,,0.00,Wunderground v.1.15,2013-05-24 07:59:00,
2013-05-24 04:04:00,63.3,56.0,29.89,WNW,285,0.0,1.0,77,0.00,,,0.00,Wunderground v.1.15,2013-05-24 08:04:00,
2013-05-24 04:09:00,63.3,56.3,29.89,WNW,285,0.0,1.0,78,0.00,,,0.00,Wunderground v.1.15,2013-05-24 08:09:00,
2013-05-24 04:14:00,63.2,55.9,29.89,WNW,284,2.0,4.0,77,0.00,,,0.00,Wunderground v.1.15,2013-05-24 08:14:00,
2013-05-24 04:19:00,63.3,56.3,29.89,WNW,285,0.0,4.0,78,0.00,,,0.00,Wunderground v.1.15,2013-05-24 08:19:00,
2013-05-24 04:24:00,63.2,56.2,29.89,NNE,26,0.0,0.0,78,0.00,,,0.00,Wunderground v.1.15,2013-05-24 08:24:00,
2013-05-24 04:29:00,63.2,55.9,29.89,West,260,2.0,4.0,77,0.00,,,0.00,Wunderground v.1.15,2013-05-24 08:29:00,
2013-05-24 04:34:00,63.0,56.0,29.89,ESE,120,0.0,2.0,78,0.00,,,0.00,Wunderground v.1.15,2013-05-24 08:34:00,
2013-05-24 04:39:00,63.1,56.1,29.89,WSW,244,1.0,3.0,78,0.00,,,0.00,Wunderground v.1.15,2013-05-24 08:39:00,
2013-05-24 04:44:00,63.2,56.2,29.90,SW,223,2.0,4.0,78,0.00,,,0.00,Wunderground v.1.15,2013-05-24 08:44:00,
2013-05-24 04:49:00,63.3,56.0,29.89,ESE,123,2.0,4.0,77,0.00,,,0.00,Wunderground v.1.15,2013-05-24 08:49:00,
2013-05-24 04:54:00,63.4,56.1,29.89,SW,214,3.0,3.0,77,0.00,,,0.00,Wunderground v.1.15,2013-05-24 08:54:00,
2013-05-24 04:59:00,63.4,56.1,29.90,NNE,13,0.0,3.0,77,0.00,,,0.00,Wunderground v.1.15,2013-05-24 08:59:00,
2013-05-24 05:04:00,63.4,55.7,29.90,WNW,292,0.0,4.0,76,0.00,,,0.00,Wunderground v.1.15,2013-05-24 09:04:00,
2013-05-24 05:09:00,63.4,55.7,29.90,WNW,291,0.0,5.0,76,0.00,,,0.00,Wunderground v.1.15,2013-05-24 09:09:00,
2013-05-24 05:14:00,63.4,56.1,29.90,WSW,251,1.0,1.0,77,0.00,,,0.00,Wunderground v.1.15,2013-05-24 09:14:00,
2013-05-24 05:19:00,63.3,56.0,29.91,WSW,251,0.0,2.0,77,0.00,,,0.00,Wunderground v.1.15,2013-05-24 09:19:00,
2013-05-24 05:24:00,63.2,55.9,29.91,WSW,251,0.0,0.0,77,0.00,,,0.00,Wunderground v.1.15,2013-05-24 09:24:00,
2013-05-24 05:29:00,63.2,55.9,29.91,WSW,251,0.0,2.0,77,0.00,,,0.00,Wunderground v.1.15,2013-05-24 09:29:00,
2013-05-24 05:34:00,63.2,55.9,29.90,WSW,256,0.0,2.0,77,0.00,,,0.00,Wunderground v.1.15,2013-05-24 09:34:00,
2013-05-24 05:39:00,63.0,55.7,29.90,WSW,258,2.0,5.0,77,0.00,,,0.00,Wunderground v.1.15,2013-05-24 09:39:00,
2013-05-24 05:44:00,62.9,55.6,29.90,WSW,258,0.0,1.0,77,0.00,,,0.00,Wunderground v.1.15,2013-05-24 09:44:00,
2013-05-24 05:49:00,62.8,55.5,29.90,WSW,258,0.0,2.0,77,0.00,,,0.00,Wunderground v.1.15,2013-05-24 09:49:00,
2013-05-24 05:54:00,62.7,55.7,29.90,WSW,258,0.0,0.0,78,0.00,,,0.00,Wunderground v.1.15,2013-05-24 09:54:00,
2013-05-24 05:59:00,62.5,55.5,29.90,WSW,258,0.0,0.0,78,0.00,,,0.00,Wunderground v.1.15,2013-05-24 09:59:00,
2013-05-24 06:04:00,62.3,55.4,29.90,WSW,258,0.0,0.0,78,0.00,,,0.00,Wunderground v.1.15,2013-05-24 10:04:00,
2013-05-24 06:09:00,62.2,55.6,29.90,North,360,0.0,5.0,79,0.00,,,0.00,Wunderground v.1.15,2013-05-24 10:09:00,
2013-05-24 06:14:00,62.0,55.4,29.90,North,360,0.0,0.0,79,0.00,,,0.00,Wunderground v.1.15,2013-05-24 10:14:00,
2013-05-24 06:19:00,62.0,55.4,29.91,NE,52,0.0,4.0,79,0.00,,,0.00,Wunderground v.1.15,2013-05-24 10:19:00,
2013-05-24 06:24:00,62.1,55.5,29.91,ENE,67,0.0,1.0,79,0.00,,,0.00,Wunderground v.1.15,2013-05-24 10:24:00,
2013-05-24 06:29:00,62.1,55.5,29.91,NE,51,0.0,2.0,79,0.00,,,0.00,Wunderground v.1.15,2013-05-24 10:29:00,
2013-05-24 06:34:00,62.0,55.4,29.91,NE,37,0.0,0.0,79,0.00,,,0.00,Wunderground v.1.15,2013-05-24 10:34:00,
2013-05-24 06:39:00,62.0,55.4,29.92,NNE,28,0.0,1.0,79,0.00,,,0.00,Wunderground v.1.15,2013-05-24 10:39:00,
2013-05-24 06:44:00,62.0,55.4,29.92,NW,314,2.0,4.0,79,0.00,,,0.00,Wunderground v.1.15,2013-05-24 10:44:00,
2013-05-24 06:49:00,61.9,55.3,29.92,NW,314,0.0,4.0,79,0.00,,,0.00,Wunderground v.1.15,2013-05-24 10:49:00,
2013-05-24 06:54:00,61.9,55.3,29.92,NW,314,0.0,0.0,79,0.00,,,0.00,Wunderground v.1.15,2013-05-24 10:54:00,
2013-05-24 06:59:00,61.8,55.2,29.93,North,360,0.0,5.0,79,0.00,,,0.00,Wunderground v.1.15,2013-05-24 10:59:00,
2013-05-24 07:04:00,61.8,55.6,29.93,North,360,4.0,7.0,80,0.00,,,0.00,Wunderground v.1.15,2013-05-24 11:04:00,
2013-05-24 07:10:00,61.9,55.3,29.93,NNW,345,0.0,7.0,79,0.00,,,0.00,Wunderground v.1.15,2013-05-24 11:10:00,
2013-05-24 07:15:00,62.0,55.8,29.93,NW,320,0.0,4.0,80,0.00,,,0.00,Wunderground v.1.15,2013-05-24 11:15:00,
2013-05-24 07:20:00,62.2,55.6,29.94,ENE,63,0.0,4.0,79,0.00,,,0.00,Wunderground v.1.15,2013-05-24 11:20:00,
2013-05-24 07:25:00,62.3,55.7,29.94,ENE,78,0.0,2.0,79,0.00,,,0.00,Wunderground v.1.15,2013-05-24 11:25:00,
2013-05-24 07:30:00,62.5,55.9,29.94,West,267,0.0,3.0,79,0.00,,,0.00,Wunderground v.1.15,2013-05-24 11:30:00,
2013-05-24 07:35:00,62.6,56.0,29.94,West,281,0.0,6.0,79,0.00,,,0.00,Wunderground v.1.15,2013-05-24 11:35:00,
2013-05-24 07:40:00,62.9,56.3,29.95,WNW,286,0.0,6.0,79,0.00,,,0.00,Wunderground v.1.15,2013-05-24 11:40:00,
2013-05-24 07:45:00,63.1,56.1,29.95,North,11,0.0,2.0,78,0.00,,,0.00,Wunderground v.1.15,2013-05-24 11:45:00,
2013-05-24 07:50:00,63.3,56.3,29.95,WSW,252,1.0,4.0,78,0.00,,,0.00,Wunderground v.1.15,2013-05-24 11:50:00,
2013-05-24 07:55:00,63.6,56.3,29.95,NW,313,4.0,4.0,77,0.00,,,0.00,Wunderground v.1.15,2013-05-24 11:55:00,
2013-05-24 08:00:00,63.9,56.5,29.95,NE,52,3.0,5.0,77,0.00,,,0.00,Wunderground v.1.15,2013-05-24 12:00:00,
2013-05-24 08:05:00,64.3,56.6,29.95,NE,38,2.0,6.0,76,0.00,,,0.00,Wunderground v.1.15,2013-05-24 12:05:00,
2013-05-24 08:10:00,64.5,56.8,29.95,WNW,284,4.0,6.0,76,0.00,,,0.00,Wunderground v.1.15,2013-05-24 12:10:00,
2013-05-24 08:15:00,64.8,57.1,29.95,ENE,60,3.0,3.0,76,0.00,,,0.00,Wunderground v.1.15,2013-05-24 12:15:00,
2013-05-24 08:20:00,65.1,57.0,29.95,WNW,302,1.0,5.0,75,0.00,,,0.00,Wunderground v.1.15,2013-05-24 12:20:00,
2013-05-24 08:25:00,65.5,57.0,29.95,NE,53,1.0,8.0,74,0.00,,,0.00,Wunderground v.1.15,2013-05-24 12:25:00,
2013-05-24 08:30:00,66.0,57.1,29.96,NE,48,3.0,8.0,73,0.00,,,0.00,Wunderground v.1.15,2013-05-24 12:30:00,
2013-05-24 08:35:00,66.5,57.2,29.95,NE,39,2.0,4.0,72,0.00,,,0.00,Wunderground v.1.15,2013-05-24 12:35:00,
2013-05-24 08:40:00,66.8,57.1,29.95,NE,41,3.0,8.0,71,0.00,,,0.00,Wunderground v.1.15,2013-05-24 12:40:00,
2013-05-24 08:45:00,67.1,57.0,29.96,ENE,67,6.0,7.0,70,0.00,,,0.00,Wunderground v.1.15,2013-05-24 12:45:00,
2013-05-24 08:50:00,67.4,57.3,29.96,ENE,60,2.0,7.0,70,0.00,,,0.00,Wunderground v.1.15,2013-05-24 12:50:00,
2013-05-24 08:55:00,67.7,56.8,29.97,North,9,4.0,6.0,68,0.00,,,0.00,Wunderground v.1.15,2013-05-24 12:55:00,
2013-05-24 09:01:00,68.0,57.0,29.97,NW,308,11.0,11.0,68,0.00,,,0.00,Wunderground v.1.15,2013-05-24 13:01:00,
2013-05-24 09:06:00,68.2,56.8,29.97,NNE,23,3.0,12.0,67,0.00,,,0.00,Wunderground v.1.15,2013-05-24 13:06:00,
2013-05-24 09:11:00,68.5,57.1,29.97,ENE,74,4.0,12.0,67,0.00,,,0.00,Wunderground v.1.15,2013-05-24 13:11:00,
2013-05-24 09:16:00,68.7,57.3,29.98,NNW,331,4.0,7.0,67,0.00,,,0.00,Wunderground v.1.15,2013-05-24 13:16:00,
2013-05-24 09:21:00,69.0,57.2,29.98,West,261,4.0,12.0,66,0.00,,,0.00,Wunderground v.1.15,2013-05-24 13:21:00,
2013-05-24 09:26:00,69.3,57.5,29.98,NE,56,3.0,9.0,66,0.00,,,0.00,Wunderground v.1.15,2013-05-24 13:26:00,
2013-05-24 09:31:00,69.7,57.8,29.99,NE,42,0.0,11.0,66,0.00,,,0.00,Wunderground v.1.15,2013-05-24 13:31:00,
2013-05-24 09:36:00,70.3,57.1,29.99,NE,40,7.0,8.0,63,0.00,,,0.00,Wunderground v.1.15,2013-05-24 13:36:00,
2013-05-24 09:41:00,70.3,56.7,29.98,NE,52,10.0,14.0,62,0.00,,,0.00,Wunderground v.1.15,2013-05-24 13:41:00,
2013-05-24 09:46:00,70.4,56.8,29.99,NNE,22,5.0,13.0,62,0.00,,,0.00,Wunderground v.1.15,2013-05-24 13:46:00,
2013-05-24 09:51:00,70.7,56.6,29.99,NE,37,4.0,13.0,61,0.00,,,0.00,Wunderground v.1.15,2013-05-24 13:51:00,
2013-05-24 09:56:00,71.1,57.9,29.99,ENE,61,2.0,7.0,63,0.00,,,0.00,Wunderground v.1.15,2013-05-24 13:56:00,
2013-05-24 10:01:00,71.6,57.9,29.99,ENE,63,4.0,11.0,62,0.00,,,0.00,Wunderground v.1.15,2013-05-24 14:01:00,
2013-05-24 10:06:00,71.9,57.3,30.00,NE,45,7.0,10.0,60,0.00,,,0.00,Wunderground v.1.15,2013-05-24 14:06:00,
2013-05-24 10:11:00,72.2,57.1,30.00,NE,49,12.0,12.0,59,0.00,,,0.00,Wunderground v.1.15,2013-05-24 14:11:00,
2013-05-24 10:16:00,72.2,56.6,30.00,NE,44,7.0,8.0,58,0.00,,,0.00,Wunderground v.1.15,2013-05-24 14:16:00,
2013-05-24 10:21:00,72.4,57.3,30.00,NE,34,1.0,9.0,59,0.00,,,0.00,Wunderground v.1.15,2013-05-24 14:21:00,
2013-05-24 10:26:00,72.8,57.6,30.00,NNE,22,2.0,7.0,59,0.00,,,0.00,Wunderground v.1.15,2013-05-24 14:26:00,
2013-05-24 10:31:00,73.2,56.6,30.00,NE,53,4.0,13.0,56,0.00,,,0.00,Wunderground v.1.15,2013-05-24 14:31:00,
2013-05-24 10:36:00,73.4,57.2,30.00,NE,40,5.0,9.0,57,0.00,,,0.00,Wunderground v.1.15,2013-05-24 14:36:00,
2013-05-24 10:41:00,73.6,55.9,30.00,ENE,69,7.0,15.0,54,0.00,,,0.00,Wunderground v.1.15,2013-05-24 14:41:00,
2013-05-24 10:46:00,73.7,55.5,30.01,NNW,333,5.0,10.0,53,0.00,,,0.00,Wunderground v.1.15,2013-05-24 14:46:00,
2013-05-24 10:51:00,73.7,55.0,30.01,NE,38,7.0,13.0,52,0.00,,,0.00,Wunderground v.1.15,2013-05-24 14:51:00,
2013-05-24 10:56:00,73.8,55.1,30.01,ENE,59,12.0,12.0,52,0.00,,,0.00,Wunderground v.1.15,2013-05-24 14:56:00,
2013-05-24 11:01:00,74.1,55.9,30.01,NNW,346,4.0,12.0,53,0.00,,,0.00,Wunderground v.1.15,2013-05-24 15:01:00,
2013-05-24 11:06:00,74.2,55.4,30.02,ENE,57,8.0,11.0,52,0.00,,,0.00,Wunderground v.1.15,2013-05-24 15:06:00,
2013-05-24 11:11:00,74.4,56.2,30.02,NE,48,8.0,14.0,53,0.00,,,0.00,Wunderground v.1.15,2013-05-24 15:11:00,
2013-05-24 11:16:00,74.4,55.6,30.02,NE,46,3.0,13.0,52,0.00,,,0.00,Wunderground v.1.15,2013-05-24 15:16:00,
2013-05-24 11:22:00,74.7,55.9,30.02,NE,54,5.0,13.0,52,0.00,,,0.00,Wunderground v.1.15,2013-05-24 15:22:00,
2013-05-24 11:27:00,74.8,56.5,30.02,SE,140,2.0,7.0,53,0.00,,,0.00,Wunderground v.1.15,2013-05-24 15:27:00,
2013-05-24 11:32:00,75.0,56.2,30.02,NE,53,7.0,11.0,52,0.00,,,0.00,Wunderground v.1.15,2013-05-24 15:32:00,
2013-05-24 11:37:00,75.0,55.6,30.02,NE,47,8.0,14.0,51,0.00,,,0.00,Wunderground v.1.15,2013-05-24 15:37:00,
2013-05-24 11:42:00,74.9,56.1,30.02,NE,37,7.0,17.0,52,0.00,,,0.00,Wunderground v.1.15,2013-05-24 15:42:00,
2013-05-24 11:47:00,75.3,56.5,30.02,ENE,67,4.0,10.0,52,0.00,,,0.00,Wunderground v.1.15,2013-05-24 15:47:00,
2013-05-24 11:52:00,76.0,57.1,30.02,NE,42,8.0,10.0,52,0.00,,,0.00,Wunderground v.1.15,2013-05-24 15:52:00,
2013-05-24 11:57:00,75.8,55.3,30.02,NE,46,5.0,13.0,49,0.00,,,0.00,Wunderground v.1.15,2013-05-24 15:57:00,
2013-05-24 12:02:00,75.8,55.3,30.02,ENE,64,11.0,13.0,49,0.00,,,0.00,Wunderground v.1.15,2013-05-24 16:02:00,
2013-05-24 12:07:00,75.8,55.8,30.02,NE,53,4.0,13.0,50,0.00,,,0.00,Wunderground v.1.15,2013-05-24 16:07:00,
2013-05-24 12:12:00,76.0,55.5,30.02,NE,50,6.0,14.0,49,0.00,,,0.00,Wunderground v.1.15,2013-05-24 16:12:00,
2013-05-24 12:17:00,75.8,55.8,30.02,ENE,71,11.0,14.0,50,0.00,,,0.00,Wunderground v.1.15,2013-05-24 16:17:00,
2013-05-24 12:22:00,76.0,57.1,30.02,NE,46,7.0,14.0,52,0.00,,,0.00,Wunderground v.1.15,2013-05-24 16:22:00,
2013-05-24 12:27:00,76.4,55.8,30.02,ESE,107,4.0,8.0,49,0.00,,,0.00,Wunderground v.1.15,2013-05-24 16:27:00,
2013-05-24 12:32:00,76.6,56.6,30.02,NE,45,7.0,16.0,50,0.00,,,0.00,Wunderground v.1.15,2013-05-24 16:32:00,
2013-05-24 12:37:00,76.9,56.8,30.02,NE,49,4.0,11.0,50,0.00,,,0.00,Wunderground v.1.15,2013-05-24 16:37:00,
2013-05-24 12:42:00,77.1,56.5,30.02,NE,52,6.0,18.0,49,0.00,,,0.00,Wunderground v.1.15,2013-05-24 16:42:00,
2013-05-24 12:47:00,76.8,55.0,30.03,NE,55,7.0,11.0,47,0.00,,,0.00,Wunderground v.1.15,2013-05-24 16:47:00,
2013-05-24 12:52:00,76.8,55.0,30.02,NNW,346,4.0,14.0,47,0.00,,,0.00,Wunderground v.1.15,2013-05-24 16:52:00,
2013-05-24 12:57:00,76.6,55.4,30.02,ENE,63,6.0,9.0,48,0.00,,,0.00,Wunderground v.1.15,2013-05-24 16:57:00,
2013-05-24 13:02:00,76.7,55.5,30.02,NE,42,5.0,14.0,48,0.00,,,0.00,Wunderground v.1.15,2013-05-24 17:02:00,
2013-05-24 13:07:00,77.0,56.4,30.02,ENE,65,4.0,7.0,49,0.00,,,0.00,Wunderground v.1.15,2013-05-24 17:07:00,
2013-05-24 13:12:00,77.1,54.7,30.02,ENE,59,3.0,13.0,46,0.00,,,0.00,Wunderground v.1.15,2013-05-24 17:12:00,
2013-05-24 13:17:00,77.4,55.6,30.03,NE,47,5.0,9.0,47,0.00,,,0.00,Wunderground v.1.15,2013-05-24 17:17:00,
2013-05-24 13:22:00,77.6,55.8,30.03,ENE,57,6.0,10.0,47,0.00,,,0.00,Wunderground v.1.15,2013-05-24 17:22:00,
2013-05-24 13:27:00,77.3,54.9,30.03,NE,50,7.0,8.0,46,0.00,,,0.00,Wunderground v.1.15,2013-05-24 17:27:00,
2013-05-24 13:32:00,77.6,56.4,30.03,ENE,59,5.0,11.0,48,0.00,,,0.00,Wunderground v.1.15,2013-05-24 17:32:00,
2013-05-24 13:37:00,78.1,56.2,30.02,ENE,71,5.0,11.0,47,0.00,,,0.00,Wunderground v.1.15,2013-05-24 17:37:00,
2013-05-24 13:42:00,78.1,55.0,30.03,NE,45,2.0,15.0,45,0.00,,,0.00,Wunderground v.1.15,2013-05-24 17:42:00,
2013-05-24 13:47:00,77.8,54.8,30.03,NE,38,6.0,8.0,45,0.00,,,0.00,Wunderground v.1.15,2013-05-24 17:47:00,
2013-05-24 13:52:00,77.7,55.3,30.03,NE,51,7.0,12.0,46,0.00,,,0.00,Wunderground v.1.15,2013-05-24 17:52:00,
2013-05-24 13:57:00,77.2,54.2,30.03,NNW,348,6.0,12.0,45,0.00,,,0.00,Wunderground v.1.15,2013-05-24 17:57:00,
2013-05-24 14:03:00,77.6,55.2,30.03,ENE,71,6.0,13.0,46,0.00,,,0.00,Wunderground v.1.15,2013-05-24 18:03:00,
2013-05-24 14:08:00,77.9,54.8,30.03,NE,43,6.0,10.0,45,0.00,,,0.00,Wunderground v.1.15,2013-05-24 18:08:00,
2013-05-24 14:13:00,78.1,55.0,30.02,ENE,71,6.0,12.0,45,0.00,,,0.00,Wunderground v.1.15,2013-05-24 18:13:00,
2013-05-24 14:18:00,78.1,54.4,30.03,NE,35,12.0,14.0,44,0.00,,,0.00,Wunderground v.1.15,2013-05-24 18:18:00,
2013-05-24 14:23:00,78.4,54.7,30.03,NNE,28,11.0,14.0,44,0.00,,,0.00,Wunderground v.1.15,2013-05-24 18:23:00,
2013-05-24 14:28:00,78.1,53.1,30.03,ENE,63,7.0,13.0,42,0.00,,,0.00,Wunderground v.1.15,2013-05-24 18:28:00,
2013-05-24 14:33:00,78.1,53.8,30.03,ENE,70,5.0,8.0,43,0.00,,,0.00,Wunderground v.1.15,2013-05-24 18:33:00,
2013-05-24 14:38:00,78.4,52.7,30.03,NE,48,11.0,11.0,41,0.00,,,0.00,Wunderground v.1.15,2013-05-24 18:38:00,
2013-05-24 14:43:00,78.0,52.4,30.03,NE,38,9.0,9.0,41,0.00,,,0.00,Wunderground v.1.15,2013-05-24 18:43:00,
2013-05-24 14:48:00,78.2,53.9,30.03,ENE,57,5.0,12.0,43,0.00,,,0.00,Wunderground v.1.15,2013-05-24 18:48:00,
2013-05-24 14:53:00,78.6,55.5,30.03,ENE,67,6.0,6.0,45,0.00,,,0.00,Wunderground v.1.15,2013-05-24 18:53:00,
2013-05-24 14:58:00,78.8,54.4,30.03,ENE,63,5.0,11.0,43,0.00,,,0.00,Wunderground v.1.15,2013-05-24 18:58:00,
2013-05-24 15:03:00,78.7,54.3,30.04,NNW,341,4.0,5.0,43,0.00,,,0.00,Wunderground v.1.15,2013-05-24 19:03:00,
2013-05-24 15:08:00,78.6,52.9,30.03,North,9,6.0,11.0,41,0.00,,,0.00,Wunderground v.1.15,2013-05-24 19:08:00,
2013-05-24 15:13:00,78.7,53.0,30.04,ENE,57,8.0,13.0,41,0.00,,,0.00,Wunderground v.1.15,2013-05-24 19:13:00,
2013-05-24 15:19:00,78.5,52.8,30.03,ENE,59,6.0,13.0,41,0.00,,,0.00,Wunderground v.1.15,2013-05-24 19:19:00,
2013-05-24 15:24:00,78.6,50.9,30.03,NE,49,4.0,7.0,38,0.00,,,0.00,Wunderground v.1.15,2013-05-24 19:24:00,
2013-05-24 15:29:00,78.8,51.0,30.04,NE,55,8.0,12.0,38,0.00,,,0.00,Wunderground v.1.15,2013-05-24 19:29:00,
2013-05-24 15:34:00,78.8,50.3,30.04,ENE,71,3.0,6.0,37,0.00,,,0.00,Wunderground v.1.15,2013-05-24 19:34:00,
2013-05-24 15:39:00,78.6,52.9,30.04,NE,50,7.0,12.0,41,0.00,,,0.00,Wunderground v.1.15,2013-05-24 19:39:00,
2013-05-24 15:44:00,78.9,51.8,30.04,ENE,57,3.0,5.0,39,0.00,,,0.00,Wunderground v.1.15,2013-05-24 19:44:00,
2013-05-24 15:49:00,79.0,50.5,30.04,ENE,64,5.0,10.0,37,0.00,,,0.00,Wunderground v.1.15,2013-05-24 19:49:00,
2013-05-24 15:54:00,79.1,51.3,30.04,ENE,65,2.0,6.0,38,0.00,,,0.00,Wunderground v.1.15,2013-05-24 19:54:00,
2013-05-24 15:59:00,78.9,50.4,30.03,ENE,70,0.0,10.0,37,0.00,,,0.00,Wunderground v.1.15,2013-05-24 19:59:00,
2013-05-24 16:04:00,79.2,50.7,30.03,NE,37,4.0,4.0,37,0.00,,,0.00,Wunderground v.1.15,2013-05-24 20:04:00,
2013-05-24 16:09:00,79.6,51.0,30.03,NNW,329,4.0,7.0,37,0.00,,,0.00,Wunderground v.1.15,2013-05-24 20:09:00,
2013-05-24 16:14:00,79.6,50.3,30.03,NE,44,3.0,4.0,36,0.00,,,0.00,Wunderground v.1.15,2013-05-24 20:14:00,
2013-05-24 16:19:00,79.8,49.7,30.03,WSW,251,0.0,7.0,35,0.00,,,0.00,Wunderground v.1.15,2013-05-24 20:19:00,
2013-05-24 16:24:00,79.9,52.0,30.03,ENE,59,7.0,8.0,38,0.00,,,0.00,Wunderground v.1.15,2013-05-24 20:24:00,
2013-05-24 16:29:00,79.8,51.2,30.03,ENE,66,3.0,8.0,37,0.00,,,0.00,Wunderground v.1.15,2013-05-24 20:29:00,
2013-05-24 16:34:00,79.8,51.2,30.04,North,360,0.0,3.0,37,0.00,,,0.00,Wunderground v.1.15,2013-05-24 20:34:00,
2013-05-24 16:39:00,79.8,51.9,30.04,NE,38,3.0,6.0,38,0.00,,,0.00,Wunderground v.1.15,2013-05-24 20:39:00,
2013-05-24 16:44:00,80.1,51.5,30.04,NNE,28,1.0,4.0,37,0.00,,,0.00,Wunderground v.1.15,2013-05-24 20:44:00,
2013-05-24 16:49:00,80.2,52.3,30.04,NNE,26,1.0,6.0,38,0.00,,,0.00,Wunderground v.1.15,2013-05-24 20:49:00,
2013-05-24 16:54:00,80.2,51.6,30.04,NW,321,1.0,5.0,37,0.00,,,0.00,Wunderground v.1.15,2013-05-24 20:54:00,
2013-05-24 16:59:00,80.1,50.7,30.04,WSW,251,2.0,5.0,36,0.00,,,0.00,Wunderground v.1.15,2013-05-24 20:59:00,
2013-05-24 17:04:00,80.0,51.4,30.04,NE,35,1.0,4.0,37,0.00,,,0.00,Wunderground v.1.15,2013-05-24 21:04:00,
2013-05-24 17:09:00,79.9,52.0,30.04,NE,37,0.0,7.0,38,0.00,,,0.00,Wunderground v.1.15,2013-05-24 21:09:00,
2013-05-24 17:14:00,79.8,52.6,30.04,ENE,59,0.0,3.0,39,0.00,,,0.00,Wunderground v.1.15,2013-05-24 21:14:00,
2013-05-24 17:20:00,79.8,51.2,30.04,NE,53,3.0,7.0,37,0.00,,,0.00,Wunderground v.1.15,2013-05-24 21:20:00,
2013-05-24 17:25:00,79.7,53.2,30.04,NE,54,4.0,4.0,40,0.00,,,0.00,Wunderground v.1.15,2013-05-24 21:25:00,
2013-05-24 17:30:00,79.6,52.5,30.04,NE,37,0.0,9.0,39,0.00,,,0.00,Wunderground v.1.15,2013-05-24 21:30:00,
2013-05-24 17:35:00,79.6,53.1,30.04,ENE,63,5.0,5.0,40,0.00,,,0.00,Wunderground v.1.15,2013-05-24 21:35:00,
2013-05-24 17:40:00,79.4,52.3,30.04,NE,44,1.0,5.0,39,0.00,,,0.00,Wunderground v.1.15,2013-05-24 21:40:00,
2013-05-24 17:45:00,79.5,53.1,30.04,NNE,31,5.0,6.0,40,0.00,,,0.00,Wunderground v.1.15,2013-05-24 21:45:00,
2013-05-24 17:50:00,79.7,52.5,30.04,NE,40,4.0,6.0,39,0.00,,,0.00,Wunderground v.1.15,2013-05-24 21:50:00,
2013-05-24 17:55:00,79.6,52.5,30.04,NE,48,1.0,6.0,39,0.00,,,0.00,Wunderground v.1.15,2013-05-24 21:55:00,
2013-05-24 18:00:00,79.4,52.3,30.04,NE,54,1.0,6.0,39,0.00,,,0.00,Wunderground v.1.15,2013-05-24 22:00:00,
2013-05-24 18:05:00,79.3,52.2,30.04,NE,44,2.0,7.0,39,0.00,,,0.00,Wunderground v.1.15,2013-05-24 22:05:00,
2013-05-24 18:10:00,79.3,51.5,30.04,NE,44,3.0,7.0,38,0.00,,,0.00,Wunderground v.1.15,2013-05-24 22:10:00,
2013-05-24 18:15:00,79.2,51.4,30.05,NE,38,2.0,3.0,38,0.00,,,0.00,Wunderground v.1.15,2013-05-24 22:15:00,
2013-05-24 18:20:00,79.3,51.5,30.05,NE,38,0.0,4.0,38,0.00,,,0.00,Wunderground v.1.15,2013-05-24 22:20:00,
2013-05-24 18:25:00,79.3,51.5,30.05,NE,38,3.0,4.0,38,0.00,,,0.00,Wunderground v.1.15,2013-05-24 22:25:00,
2013-05-24 18:30:00,78.9,51.8,30.05,NE,45,5.0,8.0,39,0.00,,,0.00,Wunderground v.1.15,2013-05-24 22:30:00,
2013-05-24 18:35:00,78.7,52.3,30.05,ENE,57,2.0,3.0,40,0.00,,,0.00,Wunderground v.1.15,2013-05-24 22:35:00,
2013-05-24 18:40:00,78.7,51.0,30.05,NNE,19,3.0,6.0,38,0.00,,,0.00,Wunderground v.1.15,2013-05-24 22:40:00,
2013-05-24 18:45:00,78.5,52.8,30.05,North,350,0.0,6.0,41,0.00,,,0.00,Wunderground v.1.15,2013-05-24 22:45:00,
2013-05-24 18:50:00,78.2,50.5,30.05,NE,46,4.0,7.0,38,0.00,,,0.00,Wunderground v.1.15,2013-05-24 22:50:00,
2013-05-24 18:55:00,78.0,51.7,30.05,NE,45,1.0,5.0,40,0.00,,,0.00,Wunderground v.1.15,2013-05-24 22:55:00,
2013-05-24 19:00:00,77.8,51.5,30.05,ENE,58,4.0,6.0,40,0.00,,,0.00,Wunderground v.1.15,2013-05-24 23:00:00,
2013-05-24 19:05:00,77.4,52.5,30.05,NE,44,2.0,7.0,42,0.00,,,0.00,Wunderground v.1.15,2013-05-24 23:05:00,
2013-05-24 19:10:00,77.2,54.2,30.05,NE,42,2.0,7.0,45,0.00,,,0.00,Wunderground v.1.15,2013-05-24 23:10:00,
2013-05-24 19:15:00,76.9,52.7,30.05,NE,39,3.0,4.0,43,0.00,,,0.00,Wunderground v.1.15,2013-05-24 23:15:00,
2013-05-24 19:20:00,76.7,52.5,30.06,NE,38,2.0,4.0,43,0.00,,,0.00,Wunderground v.1.15,2013-05-24 23:20:00,
2013-05-24 19:25:00,76.5,51.7,30.06,NE,48,2.0,6.0,42,0.00,,,0.00,Wunderground v.1.15,2013-05-24 23:25:00,
2013-05-24 19:30:00,76.3,52.2,30.06,NE,41,0.0,6.0,43,0.00,,,0.00,Wunderground v.1.15,2013-05-24 23:30:00,
2013-05-24 19:35:00,76.1,52.0,30.06,NE,42,0.0,1.0,43,0.00,,,0.00,Wunderground v.1.15,2013-05-24 23:35:00,
2013-05-24 19:40:00,75.9,52.4,30.06,NE,46,0.0,2.0,44,0.00,,,0.00,Wunderground v.1.15,2013-05-24 23:40:00,
2013-05-24 19:45:00,75.7,52.8,30.06,NE,46,0.0,0.0,45,0.00,,,0.00,Wunderground v.1.15,2013-05-24 23:45:00,
2013-05-24 19:50:00,75.5,50.8,30.06,NE,46,0.0,0.0,42,0.00,,,0.00,Wunderground v.1.15,2013-05-24 23:50:00,
2013-05-24 19:55:00,75.2,53.6,30.07,NE,46,0.0,0.0,47,0.00,,,0.00,Wunderground v.1.15,2013-05-24 23:55:00,
2013-05-24 20:00:00,74.9,53.3,30.07,NE,46,0.0,0.0,47,0.00,,,0.00,Wunderground v.1.15,2013-05-25 00:00:00,
2013-05-24 20:05:00,74.4,52.3,30.07,NE,46,0.0,0.0,46,0.00,,,0.00,Wunderground v.1.15,2013-05-25 00:05:00,
2013-05-24 20:10:00,74.0,52.5,30.07,NE,46,0.0,0.0,47,0.00,,,0.00,Wunderground v.1.15,2013-05-25 00:10:00,
2013-05-24 20:15:00,73.5,52.0,30.07,NE,46,0.0,0.0,47,0.00,,,0.00,Wunderground v.1.15,2013-05-25 00:15:00,
2013-05-24 20:20:00,73.1,52.2,30.07,NE,46,0.0,0.0,48,0.00,,,0.00,Wunderground v.1.15,2013-05-25 00:20:00,
2013-05-24 20:25:00,72.8,52.5,30.07,NE,46,0.0,0.0,49,0.00,,,0.00,Wunderground v.1.15,2013-05-25 00:25:00,
2013-05-24 20:31:00,72.4,51.6,30.07,NE,46,0.0,0.0,48,0.00,,,0.00,Wunderground v.1.15,2013-05-25 00:31:00,
2013-05-24 20:36:00,72.1,52.4,30.07,NE,46,0.0,0.0,50,0.00,,,0.00,Wunderground v.1.15,2013-05-25 00:36:00,
2013-05-24 20:41:00,71.7,52.1,30.07,NE,46,0.0,0.0,50,0.00,,,0.00,Wunderground v.1.15,2013-05-25 00:41:00,
2013-05-24 20:46:00,71.2,52.7,30.07,NE,46,0.0,0.0,52,0.00,,,0.00,Wunderground v.1.15,2013-05-25 00:46:00,
2013-05-24 20:51:00,70.4,51.9,30.08,NE,46,0.0,0.0,52,0.00,,,0.00,Wunderground v.1.15,2013-05-25 00:51:00,
2013-05-24 20:56:00,69.8,54.4,30.08,NE,46,0.0,0.0,58,0.00,,,0.00,Wunderground v.1.15,2013-05-25 00:56:00,
2013-05-24 21:01:00,69.1,54.6,30.08,NE,46,0.0,0.0,60,0.00,,,0.00,Wunderground v.1.15,2013-05-25 01:01:00,
2013-05-24 21:06:00,68.4,53.5,30.08,NE,46,0.0,0.0,59,0.00,,,0.00,Wunderground v.1.15,2013-05-25 01:06:00,
2013-05-24 21:11:00,68.2,53.8,30.09,NE,46,0.0,0.0,60,0.00,,,0.00,Wunderground v.1.15,2013-05-25 01:11:00,
2013-05-24 21:16:00,68.1,53.2,30.09,NE,46,0.0,0.0,59,0.00,,,0.00,Wunderground v.1.15,2013-05-25 01:16:00,
2013-05-24 21:21:00,68.0,53.1,30.09,NE,46,0.0,0.0,59,0.00,,,0.00,Wunderground v.1.15,2013-05-25 01:21:00,
2013-05-24 21:26:00,67.8,54.3,30.09,NE,46,0.0,0.0,62,0.00,,,0.00,Wunderground v.1.15,2013-05-25 01:26:00,
2013-05-24 21:31:00,67.2,54.2,30.10,NE,46,0.0,0.0,63,0.00,,,0.00,Wunderground v.1.15,2013-05-25 01:31:00,
2013-05-24 21:36:00,66.3,54.6,30.10,NE,46,0.0,0.0,66,0.00,,,0.00,Wunderground v.1.15,2013-05-25 01:36:00,
2013-05-24 21:41:00,65.7,55.2,30.11,NE,46,0.0,0.0,69,0.00,,,0.00,Wunderground v.1.15,2013-05-25 01:41:00,
2013-05-24 21:46:00,65.1,55.1,30.11,NE,46,0.0,0.0,70,0.00,,,0.00,Wunderground v.1.15,2013-05-25 01:46:00,
2013-05-24 21:51:00,64.5,54.5,30.11,NE,46,0.0,0.0,70,0.00,,,0.00,Wunderground v.1.15,2013-05-25 01:51:00,
2013-05-24 21:56:00,64.1,54.9,30.12,NE,46,0.0,0.0,72,0.00,,,0.00,Wunderground v.1.15,2013-05-25 01:56:00,
2013-05-24 22:01:00,63.8,54.6,30.12,NE,46,0.0,0.0,72,0.00,,,0.00,Wunderground v.1.15,2013-05-25 02:01:00,
2013-05-24 22:06:00,63.6,54.4,30.12,NE,46,0.0,0.0,72,0.00,,,0.00,Wunderground v.1.15,2013-05-25 02:06:00,
2013-05-24 22:11:00,63.5,54.3,30.12,NE,46,0.0,0.0,72,0.00,,,0.00,Wunderground v.1.15,2013-05-25 02:11:00,
2013-05-24 22:16:00,63.3,52.6,30.12,NE,46,0.0,0.0,68,0.00,,,0.00,Wunderground v.1.15,2013-05-25 02:16:00,
2013-05-24 22:21:00,63.3,54.1,30.12,NE,46,0.0,0.0,72,0.00,,,0.00,Wunderground v.1.15,2013-05-25 02:21:00,
2013-05-24 22:26:00,63.1,54.7,30.13,NE,46,0.0,0.0,74,0.00,,,0.00,Wunderground v.1.15,2013-05-25 02:26:00,
2013-05-24 22:31:00,62.9,54.9,30.13,NE,46,0.0,0.0,75,0.00,,,0.00,Wunderground v.1.15,2013-05-25 02:31:00,
2013-05-24 22:36:00,62.7,54.7,30.13,NE,46,0.0,0.0,75,0.00,,,0.00,Wunderground v.1.15,2013-05-25 02:36:00,
2013-05-24 22:41:00,62.4,54.4,30.13,NE,46,0.0,0.0,75,0.00,,,0.00,Wunderground v.1.15,2013-05-25 02:41:00,
2013-05-24 22:46:00,62.4,48.8,30.13,NE,46,0.0,0.0,61,0.00,,,0.00,Wunderground v.1.15,2013-05-25 02:46:00,
2013-05-24 22:51:00,62.9,48.3,30.13,NE,46,0.0,0.0,59,0.00,,,0.00,Wunderground v.1.15,2013-05-25 02:51:00,
2013-05-24 22:56:00,63.2,47.7,30.13,NE,46,0.0,0.0,57,0.00,,,0.00,Wunderground v.1.15,2013-05-25 02:56:00,
2013-05-24 23:01:00,63.3,45.9,30.13,NE,46,0.0,0.0,53,0.00,,,0.00,Wunderground v.1.15,2013-05-25 03:01:00,
2013-05-24 23:06:00,63.6,49.9,30.14,NE,46,0.0,0.0,61,0.00,,,0.00,Wunderground v.1.15,2013-05-25 03:06:00,
2013-05-24 23:11:00,63.4,51.4,30.14,NE,46,0.0,0.0,65,0.00,,,0.00,Wunderground v.1.15,2013-05-25 03:11:00,
2013-05-24 23:16:00,62.8,51.3,30.14,NE,46,0.0,0.0,66,0.00,,,0.00,Wunderground v.1.15,2013-05-25 03:16:00,
2013-05-24 23:21:00,62.2,44.3,30.14,NE,46,0.0,0.0,52,0.00,,,0.00,Wunderground v.1.15,2013-05-25 03:21:00,
2013-05-24 23:26:00,62.2,48.1,30.14,NE,46,0.0,0.0,60,0.00,,,0.00,Wunderground v.1.15,2013-05-25 03:26:00,
2013-05-24 23:31:00,61.8,49.5,30.14,NE,46,0.0,0.0,64,0.00,,,0.00,Wunderground v.1.15,2013-05-25 03:31:00,
2013-05-24 23:36:00,61.2,48.5,30.15,NE,46,0.0,0.0,63,0.00,,,0.00,Wunderground v.1.15,2013-05-25 03:36:00,
2013-05-24 23:41:00,60.6,48.4,30.15,NE,46,0.0,0.0,64,0.00,,,0.00,Wunderground v.1.15,2013-05-25 03:41:00,
2013-05-24 23:47:00,60.1,47.0,30.15,NE,46,0.0,0.0,62,0.00,,,0.00,Wunderground v.1.15,2013-05-25 03:47:00,
2013-05-24 23:52:00,59.6,47.4,30.15,NE,46,0.0,0.0,64,0.00,,,0.00,Wunderground v.1.15,2013-05-25 03:52:00,
2013-05-24 23:57:00,59.3,46.7,30.15,NE,46,0.0,0.0,63,0.00,,,0.00,Wunderground v.1.15,2013-05-25 03:57:00,